UFO 11 (USA 174)

Last updated on Thu Nov 21 2024 00:02:40 GMT+0000 (Coordinated Universal Time)

1 28117U 03057A 24324.15222851 -.00000099 00000+0 00000+0 0 9992 2 28117 8.3125 36.2517 0004175 200.6063 311.5845 1.00271194 76687
UTC large
Height (km)
Speed (km/s)
/
Latitude / Longitude
Inclination (degrees)
Orbital Period (minutes)
Azimuth
Elevation
Range (km)
Doppler Factor

Next 0 passes for location: London (51.5072 / 0.1276)

Sorry there are no passes over London.